Davenport, IA

12:12 PM CDT on March 30, 2017 (GMT -0500)
Davenport Municipal

Weather History for KDVN - August, 2014

Change the Weather History Date:

Saturday, August 16, 2014

  Actual Average Record
Temperature  
Mean Temperature 69 °F 72 °F  
Max Temperature 76 °F 82 °F 97 °F (1983)
Min Temperature 61 °F 61 °F 49 °F (2013)
Degree Days  
Heating Degree Days 0 0  
Month to date heating degree days 3 0  
Since 1 June heating degree days 25 28  
Since 1 July heating degree days 21 4  
Cooling Degree Days 4 7  
Month to date cooling degree days 73 119  
Year to date cooling degree days 521 620  
Since 1 June cooling degree days 413 559  
Growing Degree Days 18 (Base 50)    
Moisture  
Dew Point 64 °F    
Average Humidity 85    
Maximum Humidity 97    
Minimum Humidity 73    
Precipitation  
Precipitation 0.05 in 0.13 in 1.12 in (1966)
Month to date precipitation 0.64 2.64  
Year to date precipitation 21.99 23.84  
Snow  
Snow 0.00 in - - ()
Month to date snowfall 0.0  
Since 1 June snowfall 0.0  
Since 1 July snowfall 0.0  
Snow Depth 0.00 in    
Sea Level Pressure  
Sea Level Pressure 29.90 in    
Wind  
Wind Speed 5 mph (SSE)    
Max Wind Speed 13 mph    
Max Gust Speed 16 mph    
Visibility 9 miles    
Events Rain    
T = Trace of Precipitation, MM = Missing Value Source: NWS Daily Summary

Daily Weather History Graph

Daily Weather History Graph

Search for Another Location

Airport or City:

Trip Planner

Search our weather history database for the weather conditions in past years. The results will help you decide how hot, cold, wet, or windy it might be!

Date:

Astronomy

Aug. 16, 2014 Rise Set
Actual Time 6:12 AM CDT 8:00 PM CDT
Civil Twilight 5:42 AM CDT 8:30 PM CDT
Nautical Twilight 5:05 AM CDT 9:06 PM CDT
Astronomical Twilight 4:26 AM CDT 9:45 PM CDT
Moon 11:38 PM CDT (8/16) 1:04 PM CDT (8/16)
Length of Visible Light 14h 47m
Length of Day
13h 48m
Waning Gibbous, 58% of the Moon is Illuminated
Aug 16
Waning Gibbous
Aug 17
Last Quarter
Aug 25
New
Sep 2
First Quarter
Sep 8
Full

Hourly Weather History & Observations

Time (CDT) Temp. Dew Point Humidity Pressure Visibility Wind Dir Wind Speed Gust Speed Precip Events Conditions
12:52 AM 63.0 °F 61.0 °F 93% 29.94 in 10.0 mi SE 5.8 mph - N/A   Scattered Clouds
1:09 AM 64.0 °F 62.1 °F 93% 29.94 in 10.0 mi SE 5.8 mph - N/A   Mostly Cloudy
1:21 AM 64.9 °F 62.1 °F 90% 29.93 in 10.0 mi ESE 4.6 mph - N/A   Scattered Clouds
1:52 AM 63.0 °F 61.0 °F 93% 29.91 in 8.0 mi SE 4.6 mph - N/A   Clear
2:52 AM 63.0 °F 61.0 °F 93% 29.91 in 8.0 mi SE 3.5 mph - N/A   Mostly Cloudy
3:52 AM 61.0 °F 59.0 °F 93% 29.91 in 8.0 mi SSE 5.8 mph - N/A   Partly Cloudy
4:52 AM 64.9 °F 63.0 °F 93% 29.91 in 8.0 mi SE 4.6 mph - N/A   Overcast
5:52 AM 66.0 °F 64.9 °F 96% 29.91 in 5.0 mi Calm Calm - 0.05 in Rain Light Rain
6:52 AM 64.9 °F 63.0 °F 93% 29.92 in 3.0 mi ESE 5.8 mph - 0.00 in   Overcast
7:52 AM 66.9 °F 64.9 °F 93% 29.91 in 4.0 mi SSE 5.8 mph - N/A   Partly Cloudy
8:52 AM 70.0 °F 66.0 °F 87% 29.92 in 8.0 mi SSE 5.8 mph - N/A   Scattered Clouds
9:52 AM 72.0 °F 66.0 °F 81% 29.91 in 10.0 mi SSE 4.6 mph - N/A   Mostly Cloudy
10:52 AM 72.0 °F 64.9 °F 78% 29.92 in 10.0 mi South 6.9 mph - N/A   Overcast
11:52 AM 73.0 °F 66.0 °F 79% 29.92 in 10.0 mi South 8.1 mph - N/A   Overcast
12:52 PM 73.0 °F 66.0 °F 79% 29.91 in 10.0 mi SSE 8.1 mph - N/A   Overcast
1:16 PM 75.0 °F 66.0 °F 73% 29.91 in 10.0 mi South 3.5 mph - N/A   Overcast
1:38 PM 73.9 °F 66.0 °F 76% 29.91 in 10.0 mi South 10.4 mph - N/A   Overcast
1:52 PM 73.9 °F 66.0 °F 76% 29.89 in 10.0 mi South 8.1 mph - N/A   Overcast
2:08 PM 75.0 °F 66.0 °F 73% 29.90 in 10.0 mi South 8.1 mph - N/A   Overcast
2:52 PM 75.9 °F 66.9 °F 74% 29.88 in 10.0 mi South 6.9 mph - N/A   Overcast
3:24 PM 73.9 °F 66.0 °F 76% 29.89 in 10.0 mi SSE 10.4 mph - N/A   Overcast
3:35 PM 73.9 °F 66.0 °F 76% 29.89 in 10.0 mi South 12.7 mph - N/A   Overcast
3:43 PM 73.0 °F 66.0 °F 79% 29.89 in 10.0 mi South 11.5 mph - N/A   Overcast
3:52 PM 73.0 °F 66.0 °F 79% 29.88 in 10.0 mi South 8.1 mph - N/A   Overcast
4:13 PM 73.0 °F 64.9 °F 76% 29.89 in 10.0 mi SSE 6.9 mph - N/A   Overcast
4:52 PM 73.0 °F 66.0 °F 79% 29.88 in 10.0 mi South 8.1 mph - N/A   Overcast
5:18 PM 73.0 °F 66.0 °F 79% 29.89 in 10.0 mi SSE 6.9 mph - N/A   Overcast
5:52 PM 73.0 °F 64.9 °F 76% 29.88 in 10.0 mi South 9.2 mph - N/A   Overcast
6:52 PM 72.0 °F 64.9 °F 78% 29.88 in 10.0 mi SSE 5.8 mph - N/A   Scattered Clouds
7:52 PM 70.0 °F 64.0 °F 81% 29.89 in 10.0 mi Calm Calm - N/A   Partly Cloudy
8:52 PM 69.1 °F 64.0 °F 84% 29.90 in 10.0 mi SE 3.5 mph - N/A   Overcast
9:52 PM 69.1 °F 64.9 °F 87% 29.90 in 10.0 mi Calm Calm - N/A   Mostly Cloudy
10:52 PM 64.9 °F 63.0 °F 93% 29.91 in 9.0 mi Calm Calm - N/A   Clear
11:52 PM 64.0 °F 61.0 °F 90% 29.92 in 7.0 mi NE 4.6 mph - N/A   Clear